GEFSSGP_con_prob3kmehi_102.txt.gz
EHI
1 1 0 0 0 0 0 0 0 0 0 1 1 1 3 3 1 0 0 5 26 48 51 52 66 78 83 83 80 75 70 65 60 52 45 39 30 20 11 5 2 1 0 0 0 0 0 0 0
1 0 0 0 0 0 0 0 0 0 0 1 1 1 2 2 0 0 0 8 31 54 54 53 66 78 81 80 75 69 63 57 50 43 38 34 30 22 13 5 2 0 0 0 0 0 0 0 0
0 0 0 0 0 0 1 2 1 1 0 1 1 1 1 0 0 0 3 16 41 58 55 55 67 76 78 76 69 63 57 49 42 37 33 31 30 24 15 7 2 0 0 0 0 0 0 0 0
0 0 0 0 0 1 2 3 2 1 0 0 0 0 0 0 0 2 9 30 53 60 55 58 71 77 77 74 67 60 55 48 40 34 30 28 27 21 15 8 3 0 0 0 0 0 0 0 0
0 0 0 0 0 1 2 2 2 2 2 1 0 1 1 1 2 6 16 38 60 65 59 64 75 80 77 73 68 61 54 46 38 30 24 21 18 13 11 8 3 1 0 0 0 0 0 0 0
0 0 0 0 0 0 1 1 2 5 6 4 2 3 3 2 6 12 22 40 59 67 65 66 71 73 71 70 67 61 52 44 35 26 19 15 10 7 7 6 4 1 1 1 0 0 0 1 1
0 0 0 0 0 0 0 1 3 5 7 6 4 5 7 7 11 19 30 42 55 62 63 60 60 58 58 61 61 57 50 43 33 24 16 13 9 6 6 6 4 2 1 1 0 0 1 2 3
0 0 0 0 0 0 0 1 1 3 6 6 5 6 11 14 20 30 39 43 47 49 49 49 50 50 49 50 51 50 46 40 31 23 17 14 11 8 6 6 5 3 1 0 0 0 1 3 5
0 0 0 0 0 0 0 0 1 3 7 9 11 17 26 32 34 40 42 37 34 34 34 35 40 44 44 42 42 42 41 37 29 22 19 16 12 9 8 7 6 3 1 0 0 0 1 2 4
0 0 0 0 0 0 0 0 1 5 11 16 23 37 50 51 47 44 37 28 23 22 22 24 28 35 36 34 32 33 35 33 27 21 20 19 15 12 12 11 7 3 0 0 0 0 0 1 2
0 0 0 0 0 0 0 2 6 12 18 24 33 49 61 59 51 44 32 22 18 19 20 20 22 25 27 26 24 24 25 24 21 18 19 20 16 14 14 14 10 5 2 1 0 0 0 2 3
0 0 0 0 1 2 3 7 17 25 29 35 43 53 59 56 50 43 33 24 20 21 21 21 21 20 20 20 19 18 16 15 14 13 15 17 15 12 12 12 9 5 4 3 1 0 1 4 6
0 0 0 1 3 7 12 17 25 33 40 47 52 55 56 52 45 40 37 31 25 21 18 17 17 17 16 13 12 13 12 10 9 9 11 14 12 8 6 6 4 2 2 2 1 1 2 4 5
0 0 0 1 4 10 21 27 30 34 43 51 54 52 50 45 39 35 36 34 28 20 14 12 12 12 10 6 5 6 7 9 8 7 8 9 8 6 3 2 1 0 0 0 0 1 3 4 5
0 0 0 1 2 9 22 32 32 32 38 45 48 46 42 37 31 26 27 28 26 21 15 12 9 7 4 2 1 2 4 5 5 4 3 3 4 3 3 2 1 0 0 0 1 2 3 4 6
0 0 0 0 1 6 18 28 29 27 30 34 37 35 32 28 23 17 15 18 18 16 13 10 7 4 1 0 0 0 1 2 2 1 0 0 1 1 1 2 1 0 0 0 1 2 3 4 4
0 0 0 0 2 8 17 24 23 21 21 23 23 21 19 18 15 9 6 8 9 9 8 7 4 2 1 0 0 0 0 0 0 0 0 0 0 0 0 1 1 0 0 0 1 1 2 2 2
0 0 0 1 5 12 20 22 19 17 16 15 14 12 11 10 7 4 2 3 4 4 5 4 2 0 0 0 0 0 0 0 0 0 0 0 0 0 0 0 0 0 0 0 0 0 1 1 1
0 0 1 2 5 12 17 16 14 13 12 11 9 8 7 6 3 1 1 3 3 3 3 3 2 1 0 0 0 0 0 0 0 0 0 0 0 0 0 0 0 0 0 0 0 0 0 0 0
0 0 1 2 4 6 8 8 7 7 7 6 6 5 5 5 3 2 3 4 3 2 2 2 2 1 0 0 0 0 0 0 0 0 0 0 0 0 0 0 0 0 0 0 0 0 0 0 0
0 0 1 1 1 2 3 3 3 3 3 3 3 3 4 4 4 3 3 3 2 1 0 1 1 1 0 0 0 0 0 0 0 0 0 0 0 0 0 0 0 0 0 0 0 0 0 0 0
0 0 0 1 0 0 1 1 1 2 2 2 1 1 1 3 3 3 2 2 1 0 0 0 0 0 0 0 0 0 0 0 0 0 0 0 0 0 0 0 0 0 0 0 0 0 0 0 0
0 0 0 0 0 0 0 0 1 2 2 1 0 0 0 1 1 1 1 1 0 0 0 0 0 0 0 0 0 0 0 0 0 0 0 0 0 0 0 0 0 0 0 0 0 0 0 0 0
0 0 0 0 0 0 0 0 0 1 1 0 0 0 0 0 0 0 0 0 0 0 0 0 0 0 0 0 0 0 0 0 0 0 0 0 0 0 0 0 0 0 0 0 0 0 0 0 0
0 0 0 0 0 0 0 0 0 0 0 0 0 0 0 0 0 0 0 0 0 0 0 0 0 0 0 0 0 0 0 0 0 0 0 0 0 0 0 0 0 0 0 0 0 0 0 0 0
0 0 0 0 0 0 0 0 0 0 0 0 0 0 0 0 0 0 0 0 0 0 0 0 0 0 0 0 0 0 0 0 0 0 0 0 0 0 0 0 0 0 0 0 0 0 0 0 0
0 0 0 0 0 0 0 0 0 0 0 0 0 0 0 0 0 0 0 0 0 0 0 0 0 0 0 0 0 0 0 0 0 0 0 0 0 0 0 0 0 0 0 0 0 0 0 0 0
0 0 0 0 0 0 0 0 0 0 0 0 0 0 0 0 0 0 0 0 0 0 0 0 0 0 0 0 0 0 0 0 0 0 0 0 0 0 0 0 0 0 0 0 0 0 0 0 0
0 0 0 0 0 0 0 0 0 0 0 0 0 0 0 0 0 0 0 0 0 0 0 0 0 0 0 0 0 0 0 0 0 0 0 0 0 0 0 0 0 0 0 0 0 0 0 0 0
0 0 0 0 0 0 0 0 0 0 0 0 0 0 0 0 0 0 0 0 0 0 0 0 0 0 0 0 0 0 0 0 0 0 0 0 0 0 0 0 0 0 0 0 0 0 0 0 0

GEFSSGP_con_prob3kmehi_108.txt.gz
EHI
1 1 0 0 0 0 0 0 0 0 0 0 0 0 0 0 0 2 4 7 15 33 42 36 29 26 30 43 53 56 57 55 50 44 36 26 16 9 6 5 3 1 0 0 0 0 0 0 0
1 0 0 0 0 0 0 0 0 0 0 0 0 0 0 0 0 2 4 6 13 26 33 33 31 27 29 39 48 51 50 47 43 38 31 21 12 7 5 4 2 1 0 0 0 0 0 0 0
0 0 0 0 0 0 0 0 0 0 0 0 0 0 0 0 0 2 3 7 11 15 22 31 33 28 27 32 39 42 40 37 33 29 21 13 7 5 4 3 1 0 0 0 0 0 0 0 0
0 0 0 0 0 0 0 0 0 0 0 0 0 1 2 2 1 3 5 8 10 10 17 31 34 28 25 26 30 33 33 29 25 20 13 8 5 3 3 2 1 0 0 0 0 0 0 0 0
0 0 0 0 0 0 0 1 2 1 0 0 0 2 6 7 7 7 7 7 8 8 18 32 36 30 26 25 26 29 28 24 20 15 10 6 4 3 3 2 1 0 0 0 0 0 0 0 0
0 0 0 0 0 0 0 2 4 3 1 1 0 3 11 17 20 17 11 7 6 7 16 31 34 28 25 23 24 25 24 22 19 13 7 5 4 3 3 2 1 0 0 0 0 0 0 0 0
0 0 0 0 0 0 0 2 5 5 4 4 3 6 17 32 38 32 22 13 8 7 13 22 25 20 17 17 18 20 20 19 16 10 5 2 2 1 1 2 2 1 0 0 0 0 0 0 0
0 0 0 0 0 0 0 3 5 6 7 9 12 17 31 45 49 46 36 23 14 11 11 15 17 15 11 11 15 18 17 14 10 6 4 2 1 0 1 2 3 2 0 0 0 0 0 0 0
0 0 0 0 0 0 1 4 5 6 9 16 25 35 46 49 49 50 43 32 23 18 15 15 16 16 11 11 16 17 15 11 8 6 7 6 4 2 3 5 6 4 1 0 0 1 2 1 0
0 0 0 0 0 0 1 3 4 4 10 20 32 43 47 44 43 45 42 36 32 27 21 18 17 16 13 13 16 15 13 12 9 8 11 12 9 6 8 11 10 5 2 1 1 3 4 4 4
0 0 0 0 0 0 0 1 3 7 15 25 34 38 40 39 38 39 39 37 36 33 26 21 19 17 16 16 16 16 15 16 13 10 12 15 14 12 14 16 15 11 8 6 7 8 8 7 7
0 0 0 0 0 0 0 2 6 15 26 34 37 37 39 40 40 41 40 38 38 34 26 21 21 24 24 21 19 19 20 20 17 15 15 15 16 16 20 22 21 17 15 13 14 14 12 10 10
0 0 0 0 0 0 0 3 10 20 31 40 42 43 45 49 50 48 45 41 38 34 27 23 26 30 30 28 24 22 22 20 19 18 17 15 15 17 22 27 25 19 16 16 17 16 15 14 13
0 0 0 0 0 0 1 4 11 20 30 40 47 50 53 57 58 55 49 43 38 34 28 26 29 30 29 27 23 19 17 17 16 15 15 13 13 15 18 21 21 18 15 16 16 14 13 15 16
0 0 0 0 0 0 1 6 13 22 32 43 51 54 56 58 58 55 50 44 38 31 26 22 22 22 21 19 15 12 11 11 10 9 9 9 10 11 10 11 13 14 14 15 14 12 11 12 14
0 0 0 0 0 0 1 7 17 26 34 43 48 49 50 50 48 46 45 43 37 30 24 18 14 14 15 13 11 9 8 7 4 3 3 4 5 5 4 5 8 10 9 9 11 11 10 10 11
0 0 0 0 0 0 2 11 23 28 31 37 40 40 38 37 34 33 34 35 33 28 24 19 14 12 12 13 12 9 7 5 2 1 1 3 3 3 3 4 6 6 5 5 6 8 8 7 6
0 0 0 0 0 0 4 16 26 26 25 30 32 32 28 25 24 23 23 24 24 21 20 18 14 11 9 9 9 7 4 3 1 1 1 2 2 2 2 3 3 3 4 3 3 4 5 4 3
0 0 1 1 1 1 6 16 23 21 20 24 26 25 20 16 16 17 16 16 15 15 14 13 11 8 5 4 4 4 3 1 0 0 1 1 1 1 1 1 1 2 3 3 1 1 2 2 1
0 0 1 2 1 1 4 11 14 13 15 18 19 17 13 11 11 12 11 10 10 11 11 10 9 6 2 1 2 3 2 1 0 0 0 0 0 0 0 0 1 2 2 2 1 0 0 0 0
0 0 1 1 0 0 2 5 7 8 10 12 12 11 9 8 8 8 8 7 6 7 7 7 7 5 3 1 1 1 1 1 0 0 0 0 0 0 0 0 0 1 1 1 0 1 1 0 0
0 0 0 0 0 0 0 1 3 6 7 8 8 7 6 4 4 4 5 5 4 3 3 3 3 3 2 0 0 1 1 0 0 0 0 0 0 0 0 0 0 1 1 1 1 2 2 1 0
0 0 0 0 0 0 0 0 1 3 5 5 5 5 4 3 2 2 2 2 1 2 2 2 2 2 1 0 1 2 1 0 0 0 0 0 0 0 0 0 1 2 3 3 3 3 2 1 0
0 0 0 0 0 0 0 0 1 2 3 4 4 4 4 3 3 2 1 1 1 1 2 2 2 2 1 1 2 3 2 1 1 0 0 0 0 0 0 0 1 3 4 4 3 2 2 2 1
0 0 0 0 0 0 0 0 1 3 3 4 5 5 4 4 4 2 1 1 2 2 2 2 2 2 1 1 2 3 3 1 0 0 0 0 0 0 0 0 1 2 3 3 2 1 1 2 3
0 0 0 0 0 0 0 1 2 3 3 4 5 4 3 3 2 1 0 1 2 3 3 3 3 2 1 1 1 2 2 1 0 0 0 0 1 0 0 0 1 1 1 1 1 1 1 2 2
0 0 0 0 0 0 0 1 2 3 3 3 3 2 1 1 1 0 0 0 1 2 3 3 3 2 1 0 1 1 1 0 0 0 0 0 0 0 0 0 0 0 0 0 0 0 1 1 1
0 0 0 0 0 0 0 0 1 2 3 3 1 0 0 0 0 0 0 0 0 1 2 3 2 2 1 0 0 0 0 0 0 0 0 0 0 0 0 0 0 0 0 0 0 0 0 0 0
0 0 0 0 0 0 0 0 0 1 2 2 1 0 0 0 0 0 0 0 0 1 2 1 1 1 0 0 0 0 0 0 0 0 0 0 0 0 0 0 0 0 0 0 0 0 0 0 0
0 0 0 0 0 0 0 0 0 0 1 1 1 1 0 0 0 0 0 0 0 1 1 0 0 0 0 0 0 0 0 0 0 0 0 0 0 0 0 0 0 0 0 0 0 0 0 0 0

GEFSSGP_con_prob3kmehi_114.txt.gz
EHI
12 19 25 19 11 9 6 2 0 0 0 0 0 2 5 7 9 11 22 52 76 63 39 31 29 21 14 9 4 1 0 1 1 1 1 1 2 1 0 0 0 0 0 0 0 0 0 0 0
9 17 19 13 9 7 3 1 0 0 0 0 1 2 3 4 6 11 27 54 66 51 32 29 28 22 16 12 7 3 2 2 4 4 4 4 4 3 1 1 0 0 0 0 0 0 0 0 0
6 10 9 6 6 4 1 0 0 0 0 1 3 5 5 4 7 15 32 51 54 39 30 32 30 23 17 14 11 9 6 6 6 6 6 5 5 4 2 1 0 0 0 0 0 0 0 0 0
4 4 2 2 2 1 0 0 0 0 0 3 10 15 13 9 11 19 30 41 45 40 37 36 31 24 18 14 13 12 10 7 6 5 4 3 2 1 1 1 0 0 0 0 0 0 0 0 0
3 2 0 0 0 0 1 0 0 0 1 6 20 29 23 13 11 15 22 31 44 53 48 40 35 26 18 14 11 11 9 7 5 3 2 1 0 0 1 1 0 0 0 0 0 0 0 0 0
1 0 0 0 0 0 0 0 1 1 3 9 25 38 33 21 13 11 13 26 52 68 57 42 35 27 19 14 10 8 8 7 6 3 1 0 0 1 2 1 0 0 0 0 0 0 0 0 0
0 0 0 0 0 0 0 1 2 4 6 11 25 40 39 29 20 13 12 28 58 72 56 36 28 23 17 14 11 9 9 9 7 4 1 0 0 1 2 2 0 0 0 1 1 0 0 0 0
0 0 0 0 0 0 0 1 3 7 12 17 30 44 43 32 23 16 16 34 61 67 50 33 25 20 15 14 15 13 12 11 8 4 1 0 0 1 2 3 3 2 1 1 1 1 1 1 1
0 0 0 0 0 0 0 1 2 8 18 29 42 49 42 30 24 22 27 47 69 70 54 41 33 23 15 17 22 20 16 13 9 6 5 5 5 3 3 6 11 10 5 2 1 2 2 3 2
0 0 0 0 0 0 1 2 3 8 21 38 49 49 40 33 33 36 47 65 80 77 64 53 45 32 23 27 32 27 24 24 19 15 15 15 13 8 8 17 25 23 14 6 4 5 5 3 3
0 0 0 0 0 0 2 5 8 14 26 41 49 46 43 44 46 51 63 78 83 76 67 62 54 44 39 42 40 33 35 38 31 27 27 26 23 16 18 28 34 32 24 16 14 14 8 4 4
0 0 0 0 0 1 3 7 13 22 33 44 48 48 50 55 57 61 71 81 80 71 68 69 64 57 56 56 49 41 43 42 37 35 34 35 32 26 26 33 34 33 30 27 27 24 14 8 7
0 0 0 0 0 2 5 9 16 25 34 44 50 53 57 63 67 70 77 82 79 71 69 70 69 64 62 62 57 49 44 39 36 36 39 39 37 32 30 33 32 29 30 33 33 27 18 13 12
0 0 0 0 0 2 6 11 18 25 32 43 53 57 62 69 72 75 80 80 74 68 64 64 64 62 59 57 55 48 39 33 33 35 37 36 34 31 29 30 30 26 26 30 30 24 19 15 11
0 0 0 0 0 1 4 11 19 25 31 44 53 57 63 71 74 74 75 72 67 63 59 55 54 54 53 48 43 35 28 25 27 30 30 27 26 24 23 22 21 18 18 22 23 20 18 14 8
0 0 0 0 0 0 2 10 18 21 26 39 47 51 58 67 71 69 64 61 60 59 57 52 46 46 44 37 30 23 18 18 19 20 19 17 15 14 13 12 11 9 10 13 14 14 13 10 6
0 0 0 0 0 0 3 10 15 14 18 31 41 45 51 57 60 57 52 50 51 51 52 50 45 39 33 25 20 15 13 12 12 12 12 9 6 5 4 6 6 5 6 7 8 8 8 8 7
0 0 0 0 1 2 5 10 12 11 16 27 40 45 48 48 45 42 39 38 40 42 44 46 45 37 27 20 16 12 9 8 9 10 8 5 3 2 3 5 6 6 6 6 6 7 9 10 10
0 0 0 1 2 3 6 9 11 14 18 27 39 46 46 42 34 28 26 26 30 34 37 40 40 33 25 21 17 11 7 6 6 7 7 4 2 2 5 6 5 4 5 5 6 7 9 9 9
0 0 0 1 1 2 5 8 12 15 18 25 34 39 38 32 25 18 15 18 21 26 29 34 35 29 24 20 14 10 7 4 4 6 7 4 1 1 3 5 4 3 4 4 4 5 6 6 7
0 0 0 0 0 1 3 6 8 11 14 18 24 27 26 22 18 12 9 12 15 21 28 33 34 28 19 13 9 8 7 5 5 9 11 8 4 3 4 5 6 5 5 4 4 3 4 4 6
0 0 0 0 0 0 1 3 5 7 9 12 16 17 17 16 13 10 9 9 13 19 29 37 35 26 16 9 6 6 5 5 7 11 14 13 10 8 7 8 10 10 7 6 4 3 3 4 4
0 0 0 0 0 0 0 1 3 5 6 8 11 12 12 12 10 10 11 12 14 18 26 34 35 27 18 12 8 7 5 4 6 10 13 15 14 11 9 10 12 12 9 6 4 4 3 3 3
0 0 0 0 0 0 0 0 2 3 4 6 8 9 10 9 8 10 13 16 16 16 20 28 34 29 19 14 11 9 6 5 5 7 8 9 11 11 9 9 11 11 8 5 4 3 3 3 3
0 0 0 0 0 0 0 0 0 2 3 5 6 8 8 8 8 9 12 14 13 13 16 24 31 27 19 15 12 10 8 6 4 4 3 3 4 6 6 6 8 8 5 3 3 3 2 3 3
0 0 0 0 0 0 0 0 0 1 2 4 7 8 7 7 8 8 9 9 7 8 13 21 27 25 21 17 13 10 8 6 4 2 1 0 0 1 2 3 5 5 3 1 2 2 2 3 3
0 0 0 0 0 0 0 0 0 0 2 4 7 7 7 7 7 6 6 5 4 6 10 16 22 24 21 16 12 9 7 5 3 2 2 1 0 0 0 1 3 3 2 2 2 2 2 2 2
0 0 0 0 0 0 0 0 0 1 2 4 5 5 6 6 5 5 5 5 5 7 9 13 18 19 16 11 8 6 5 4 3 3 3 2 1 1 0 0 1 2 2 2 3 3 1 1 1
0 0 0 0 0 0 0 0 0 1 2 3 3 3 4 4 4 5 6 7 7 7 9 11 13 12 9 5 3 3 3 3 3 3 3 3 2 1 0 0 0 1 1 1 2 2 1 0 0
0 0 0 0 0 0 0 0 0 0 1 2 1 1 2 3 4 5 6 7 5 6 9 10 8 7 4 2 2 2 2 3 3 3 3 3 2 1 0 0 0 0 0 0 1 1 1 0 0

GEFSSGP_con_prob3kmehi_120.txt.gz
EHI
12 5 1 0 0 0 1 1 1 0 0 2 6 12 16 14 10 8 9 24 49 54 42 44 56 55 41 27 15 7 4 3 1 0 0 0 0 0 0 0 0 0 0 0 0 0 0 0 0
4 2 0 0 0 1 1 1 0 0 1 2 6 11 16 17 16 13 15 32 53 55 44 46 57 56 44 30 18 10 6 4 1 0 0 0 0 0 0 0 0 0 0 0 0 0 0 0 0
0 0 0 0 0 1 2 2 1 0 1 4 9 12 13 14 15 15 22 41 57 55 45 48 58 58 45 33 23 15 8 5 3 1 0 0 0 0 0 0 0 0 0 0 0 0 0 0 0
0 0 0 0 0 1 2 2 2 3 5 9 15 15 12 13 18 21 27 42 56 52 44 47 57 56 45 35 27 17 10 6 4 2 1 1 1 0 0 0 0 0 0 0 0 0 0 0 0
0 0 0 0 0 0 1 3 6 10 12 16 20 20 18 22 31 31 29 40 52 49 41 44 51 51 43 35 27 18 11 7 5 3 2 2 2 1 0 0 0 0 0 0 0 0 0 0 0
0 0 0 0 0 0 1 5 10 16 18 19 23 25 25 29 36 35 30 35 43 43 38 37 40 41 38 31 24 17 12 8 6 4 3 3 3 2 0 0 0 0 0 0 0 0 0 0 0
0 0 0 0 0 0 2 6 12 18 22 21 22 24 25 30 37 40 35 30 32 34 32 29 27 28 28 25 20 17 13 9 7 6 5 4 3 1 0 0 0 0 0 0 0 0 0 0 0
0 0 0 0 0 1 3 6 12 20 25 22 18 18 22 33 47 55 48 35 28 26 23 20 17 18 20 19 18 19 17 13 9 7 5 4 3 1 0 1 1 1 1 1 0 0 0 0 0
0 0 0 0 0 1 3 6 12 22 27 23 18 17 23 38 55 66 63 48 30 20 14 12 13 15 17 16 16 17 17 13 8 5 4 4 3 1 0 1 2 2 2 2 1 1 1 0 0
0 0 0 1 1 1 4 6 11 21 28 28 26 25 30 43 57 66 66 54 34 18 11 10 12 14 15 14 12 11 11 8 4 2 3 3 3 1 1 1 1 1 1 2 3 4 2 1 0
0 0 1 2 3 3 6 9 13 21 27 30 32 32 35 47 57 60 60 51 37 23 15 13 13 13 13 13 11 7 5 3 1 2 4 4 3 2 1 0 0 0 0 2 4 4 2 1 0
0 0 1 3 4 6 9 15 22 25 26 28 31 32 35 44 52 54 51 47 39 32 25 21 19 16 15 14 11 7 4 2 1 2 3 3 1 1 1 0 0 0 1 2 3 2 1 0 1
0 0 1 2 4 8 13 21 29 29 26 25 28 30 33 40 47 49 46 43 41 39 34 28 25 22 19 15 10 6 4 2 1 1 2 2 1 0 0 0 0 1 2 3 2 0 0 1 1
0 0 0 1 3 8 14 22 27 26 24 25 28 31 34 39 43 42 40 39 40 41 38 31 27 25 20 14 7 4 3 2 2 2 3 3 1 0 0 0 0 1 2 2 2 1 1 1 1
0 0 0 1 2 5 11 15 17 19 21 23 25 31 36 40 40 36 35 37 38 38 34 28 26 22 16 10 6 3 1 0 1 3 4 3 1 0 0 0 0 0 1 1 1 1 1 0 0
0 0 0 1 1 3 6 8 9 13 16 19 22 26 32 36 34 32 32 33 33 29 24 22 20 16 12 8 6 3 2 1 1 2 3 2 1 0 0 0 0 0 0 0 1 1 1 0 0
0 0 0 0 1 2 3 5 6 8 12 17 22 25 27 26 26 27 27 26 25 22 18 15 12 9 8 7 6 5 4 4 3 2 2 1 0 0 0 0 0 0 0 0 0 0 0 0 0
0 0 0 0 0 1 3 4 5 6 11 18 23 25 23 19 19 21 21 20 20 18 14 10 8 6 6 6 5 4 4 3 3 2 1 0 0 0 0 0 0 0 0 0 0 0 0 0 0
0 0 0 0 0 1 2 3 5 7 11 17 21 22 20 16 15 16 17 17 16 14 11 8 6 5 4 4 3 2 2 1 1 1 0 0 0 0 0 0 0 0 0 0 0 0 0 0 0
0 0 0 0 0 0 1 3 4 6 8 13 17 17 15 13 12 12 13 13 12 10 8 7 5 4 3 3 1 1 0 0 0 0 0 0 0 0 0 0 0 0 0 0 0 0 0 0 0
0 0 0 0 0 0 1 1 2 3 6 9 12 14 12 10 9 10 12 11 9 7 6 5 5 3 2 1 0 0 0 0 0 0 0 0 0 0 0 0 0 0 0 0 0 0 0 0 0
0 0 0 0 0 0 0 0 0 1 3 4 7 9 10 8 8 9 11 10 8 6 5 4 4 3 1 0 0 0 0 0 0 0 0 0 0 0 0 0 0 0 0 0 0 0 0 0 0
0 0 0 0 0 0 0 0 0 0 1 1 3 6 7 7 7 8 8 7 6 5 4 3 3 2 1 0 0 0 0 0 0 0 0 0 0 0 0 0 0 0 0 0 0 0 0 0 0
0 0 0 0 0 0 0 0 0 0 0 0 1 4 7 7 6 6 5 4 4 3 3 3 2 2 1 0 0 0 0 0 0 0 0 0 0 0 0 0 0 0 0 0 0 0 0 0 0
0 0 0 0 0 0 0 0 0 0 0 0 1 3 5 6 5 4 3 2 2 3 4 3 1 1 0 0 0 0 0 0 0 0 0 0 0 0 0 0 0 0 0 0 0 0 0 0 0
0 0 0 0 0 0 0 0 0 0 0 0 0 1 2 4 3 3 2 2 3 5 4 2 1 0 0 0 0 0 0 0 0 0 0 0 0 0 0 0 0 0 0 0 0 0 0 0 0
0 0 0 0 0 0 0 0 0 0 0 0 0 0 1 2 2 1 1 2 3 3 2 2 2 1 0 0 0 0 0 0 0 0 0 0 0 0 0 0 0 0 0 0 0 0 0 0 0
0 0 0 0 0 0 0 0 0 0 0 0 0 0 0 1 1 0 0 1 1 1 1 1 3 2 1 0 0 0 0 0 0 0 0 0 0 0 0 0 0 0 0 0 0 0 0 0 0
0 0 0 0 0 0 0 0 0 0 0 0 0 0 0 0 0 0 0 0 0 0 1 2 3 3 1 0 1 0 0 0 0 0 0 0 0 0 0 0 0 0 0 0 0 0 0 0 0
0 0 0 0 0 0 0 0 0 0 0 0 0 0 0 0 0 0 0 0 0 0 1 2 3 2 1 0 1 0 0 0 0 0 0 0 0 0 0 0 0 0 0 0 0 0 0 0 0

GEFSSGP_con_prob3kmehi_126.txt.gz
EHI
1 1 1 1 0 0 0 0 0 0 0 1 2 3 4 3 2 1 1 11 30 39 32 32 44 55 57 48 38 30 25 21 19 16 12 6 3 3 3 2 1 0 0 0 0 0 0 0 0
1 0 0 0 0 0 0 0 0 0 0 1 2 3 3 3 2 1 1 13 35 44 37 37 49 57 55 46 33 24 19 16 14 12 9 5 3 4 3 2 1 0 0 0 0 0 0 0 0
0 0 0 0 0 0 0 0 0 0 1 2 4 5 4 2 1 2 6 20 40 46 40 42 52 55 49 41 29 19 13 10 9 7 6 4 4 4 3 1 0 0 0 0 0 0 0 0 0
0 0 0 0 0 0 0 0 0 1 3 4 7 10 7 3 4 9 18 32 44 43 37 40 49 49 43 37 28 18 10 8 7 6 4 3 3 3 2 1 0 0 0 0 0 0 0 0 0
0 0 0 0 0 0 0 0 1 4 6 7 11 15 12 7 11 21 32 42 47 43 38 39 44 44 40 34 27 19 11 7 6 4 3 3 3 2 1 0 0 0 0 0 0 0 0 0 0
0 0 0 0 0 0 0 0 3 7 9 10 14 17 13 10 16 30 40 45 46 45 43 40 39 37 35 32 26 18 12 8 6 4 3 3 3 2 0 0 0 0 0 0 0 0 0 0 0
0 0 0 0 0 0 0 0 3 7 10 13 16 17 14 13 21 34 42 43 41 42 42 38 32 28 27 26 23 17 12 8 7 6 5 3 3 2 0 0 0 0 0 0 1 1 1 0 0
0 0 0 0 0 0 0 0 2 6 11 15 15 16 18 22 31 39 42 40 35 34 34 32 29 24 20 20 19 15 11 9 8 8 7 5 3 1 0 1 1 0 0 0 1 1 1 0 0
0 0 0 0 0 0 0 0 1 6 13 16 16 20 29 39 44 42 38 34 29 27 26 25 26 23 19 18 17 14 11 9 8 8 9 6 2 0 0 1 2 1 0 0 0 1 1 0 0
0 0 0 0 0 1 1 1 2 6 13 15 20 30 44 52 50 40 31 25 21 19 18 17 18 19 18 17 16 14 12 10 8 9 9 6 2 1 0 1 1 1 1 1 1 1 1 1 1
0 0 0 0 0 2 3 4 4 8 10 14 25 40 51 53 47 34 23 17 13 11 12 12 13 15 15 14 13 13 12 10 8 8 8 5 2 1 1 0 0 1 1 2 2 2 2 3 4
0 0 0 0 2 4 6 7 10 11 12 18 30 43 51 49 40 27 17 12 9 8 9 11 12 12 12 11 11 11 9 8 7 6 5 3 3 3 2 1 0 0 1 1 2 3 3 4 4
0 0 0 1 3 6 8 10 12 13 16 24 34 42 45 42 34 24 14 10 8 8 9 10 11 11 9 9 9 9 7 6 5 4 3 3 3 3 3 2 0 0 0 1 2 2 2 2 2
0 0 0 1 3 6 8 9 10 12 16 24 32 35 34 31 27 22 17 13 10 8 8 7 8 8 8 7 7 7 7 6 5 4 3 3 2 2 1 1 0 0 0 1 1 1 0 0 0
0 0 0 0 1 3 5 5 6 9 13 19 24 25 23 21 20 19 19 17 12 9 7 5 5 6 7 7 7 7 7 6 6 5 4 3 1 0 0 0 0 0 0 1 1 0 0 0 0
0 0 0 0 0 0 1 2 4 7 11 14 17 17 15 14 14 16 18 17 13 10 8 6 4 5 6 6 5 5 4 4 4 3 3 2 1 0 0 0 0 0 0 0 0 0 0 0 0
0 0 0 0 0 0 0 1 3 7 10 12 11 10 9 9 11 15 16 15 12 9 7 6 4 4 4 4 2 1 1 1 1 1 1 1 0 0 1 0 0 0 0 0 0 0 0 0 0
0 0 0 0 0 0 0 2 5 8 10 9 7 6 7 9 11 14 15 13 9 5 4 4 3 3 3 2 1 0 0 0 0 0 0 0 0 0 0 0 0 0 0 0 0 0 0 0 0
0 0 0 0 0 0 1 3 6 8 9 8 6 6 8 10 12 13 12 9 5 3 2 2 2 2 1 1 0 0 0 0 0 0 0 0 0 0 0 0 0 0 0 0 0 0 0 0 0
0 0 0 0 0 0 1 2 4 5 6 6 5 6 8 9 10 10 8 5 2 2 1 0 1 1 0 0 0 0 0 0 0 0 0 0 0 0 0 0 0 0 0 0 0 0 0 0 0
0 0 0 0 0 0 0 1 1 2 2 3 3 5 7 8 8 8 6 3 1 1 1 0 0 0 0 0 0 0 0 0 0 0 0 0 0 0 0 0 0 0 0 0 0 0 0 0 0
0 0 0 0 0 0 0 0 0 0 0 1 2 4 8 8 7 6 5 3 1 0 0 0 0 0 0 0 0 0 0 0 0 0 0 0 0 0 0 0 0 0 0 0 0 0 0 0 0
0 0 0 0 0 0 0 0 0 0 0 0 1 4 6 7 7 5 4 2 1 0 0 0 0 0 0 0 0 0 0 0 0 0 0 0 0 0 0 0 0 0 0 0 0 0 0 0 0
0 0 0 0 0 0 0 0 0 0 0 0 1 2 4 5 5 3 1 1 0 0 0 0 0 0 0 0 0 0 0 0 0 0 0 0 0 0 0 0 0 0 0 0 0 0 0 0 0
0 0 0 0 0 0 0 0 0 0 0 0 0 1 3 3 3 1 0 0 0 0 0 0 0 0 0 0 0 0 0 0 0 0 0 0 0 0 0 0 0 0 0 0 0 0 0 0 0
0 0 0 0 0 0 0 0 0 0 0 0 0 1 2 3 2 1 0 0 0 0 0 0 0 0 0 0 0 0 0 0 0 0 0 0 0 0 0 0 0 0 0 0 0 0 0 0 0
0 0 0 0 0 0 0 0 0 0 0 0 0 1 2 2 2 1 0 0 0 0 0 0 0 0 0 0 0 0 0 0 0 0 0 0 0 0 0 0 0 0 0 0 0 0 0 0 0
0 0 0 0 0 0 0 0 0 0 0 0 0 0 1 1 1 0 0 0 0 0 0 0 0 0 0 0 0 0 0 0 0 0 0 0 0 0 0 0 0 0 0 0 0 0 0 0 0
0 0 0 0 0 0 0 0 0 0 0 0 0 0 0 0 0 0 0 0 0 0 0 0 0 0 0 0 0 0 0 0 0 0 0 0 0 0 0 0 0 0 0 0 0 0 0 0 0
0 0 0 0 0 0 0 0 0 0 0 0 0 0 0 0 0 0 0 0 0 0 0 0 0 0 0 0 0 0 0 0 0 0 0 0 0 0 0 0 0 0 0 0 0 0 0 0 0

GEFSSGP_con_prob3kmehi_132.txt.gz
EHI
0 0 0 0 0 0 0 0 0 0 0 0 1 2 1 1 1 5 7 4 4 8 10 13 17 19 22 27 28 25 22 21 18 15 11 7 3 1 0 0 0 0 0 0 0 0 0 0 0
0 0 0 0 0 0 0 0 0 0 0 0 2 2 2 3 4 6 7 5 4 7 11 15 19 20 21 24 26 25 22 19 16 14 10 6 2 1 0 0 0 0 0 0 0 0 0 0 0
0 0 0 0 0 0 0 0 0 0 0 0 1 2 4 6 7 8 8 6 4 5 10 19 22 19 17 19 21 22 20 17 15 13 9 4 1 0 0 0 0 0 0 0 0 0 0 0 0
0 0 0 0 0 0 0 0 0 1 0 0 1 2 7 11 11 11 10 7 5 4 10 19 21 16 13 14 16 18 18 16 13 11 7 4 1 0 0 0 0 0 0 0 0 0 0 0 0
0 0 0 0 0 0 0 0 0 0 0 0 1 5 12 18 17 16 13 8 4 3 8 16 18 15 12 12 14 14 14 14 11 7 5 4 2 1 0 0 0 0 0 0 0 1 1 0 0
0 0 0 0 0 0 0 0 0 0 0 0 1 8 22 28 24 20 15 8 3 3 7 13 14 12 11 12 13 12 11 11 9 5 4 4 3 1 0 0 0 0 0 0 1 2 1 0 0
0 0 0 0 0 0 0 0 0 0 1 1 1 10 28 39 35 26 18 10 4 3 7 10 10 9 9 12 13 12 9 8 6 5 5 6 4 2 1 0 0 0 0 0 1 1 1 0 0
0 0 0 0 0 0 0 0 0 1 3 3 4 12 31 48 48 38 28 17 9 8 9 10 8 6 6 9 11 10 7 4 2 3 5 5 5 3 2 1 0 0 0 0 0 0 0 0 0
0 0 0 0 0 0 0 0 0 1 3 6 11 21 40 58 60 51 40 27 20 17 15 12 9 6 4 5 8 7 4 1 1 2 3 3 3 3 3 3 1 0 0 0 0 0 0 0 0
0 0 0 0 0 0 0 0 0 0 2 6 15 32 52 66 67 58 46 36 30 27 22 16 11 6 4 5 8 8 5 4 3 3 2 1 1 2 3 4 3 1 1 1 1 1 1 0 0
0 0 0 0 0 0 0 0 0 0 2 5 16 35 54 65 66 57 46 36 31 29 26 21 15 9 7 8 11 11 10 8 5 4 3 2 2 3 3 3 3 3 3 3 4 4 3 1 1
0 0 0 0 0 0 0 0 1 2 5 11 19 30 45 55 58 52 41 32 27 25 25 23 20 16 13 12 13 13 12 10 7 5 4 4 4 4 3 4 4 4 5 6 6 6 5 3 2
0 0 0 0 0 0 0 0 1 4 10 18 24 30 38 45 47 45 37 29 25 23 22 23 24 21 17 17 16 13 12 10 9 8 6 5 5 6 5 4 5 6 6 6 6 5 4 2 2
0 0 0 0 0 0 0 0 1 4 10 18 25 31 37 41 42 41 36 32 27 24 22 22 22 21 19 19 17 12 9 9 8 8 7 5 5 6 5 4 4 5 5 5 4 3 1 0 1
0 0 0 0 0 0 0 0 2 5 9 14 20 26 33 36 38 38 36 32 27 24 23 20 17 17 19 18 14 9 6 6 5 5 5 4 3 4 4 3 2 2 3 3 2 2 1 0 0
0 0 0 0 0 0 0 2 4 6 8 11 15 19 25 29 28 28 28 26 23 23 23 20 14 14 15 15 12 7 5 5 3 1 1 1 2 3 2 1 1 2 2 2 2 2 1 0 0
0 0 0 0 0 0 0 2 5 5 7 9 12 15 19 20 17 16 19 20 20 22 23 20 15 12 12 12 10 9 6 3 1 1 1 1 2 3 2 1 2 3 3 3 3 3 3 1 1
0 0 0 0 0 0 0 1 2 3 4 7 9 10 11 12 13 14 16 18 18 19 19 18 15 12 10 9 9 9 6 3 1 1 2 1 1 1 2 2 2 3 3 3 3 3 3 2 1
0 0 0 0 0 0 0 0 0 1 3 6 8 7 7 10 14 15 16 17 16 14 15 17 15 10 7 7 7 7 6 3 1 1 1 1 0 0 1 2 3 2 2 2 2 3 3 2 1
0 0 0 0 0 0 0 0 0 1 4 6 8 8 8 11 13 13 14 15 13 12 13 15 13 7 4 5 6 6 5 3 1 0 0 0 0 1 1 2 3 1 0 0 1 1 2 2 1
0 0 0 0 0 0 0 0 0 1 4 6 7 8 9 10 10 10 12 13 13 12 12 12 10 6 3 4 6 6 5 3 1 0 0 0 0 1 2 3 2 1 0 0 0 0 1 1 0
0 0 0 0 0 0 0 0 0 1 3 5 6 6 8 8 8 9 10 11 13 12 11 10 8 6 4 4 5 5 4 2 1 0 0 0 0 1 1 2 2 1 0 0 0 0 0 0 0
0 0 0 0 0 0 0 0 0 0 2 3 4 5 6 8 9 9 10 10 11 12 11 9 8 6 4 3 3 2 1 1 1 0 0 0 0 0 0 1 2 1 0 0 0 0 0 0 0
0 0 0 0 0 0 0 0 0 0 0 1 3 4 6 8 9 9 9 10 10 11 10 9 7 5 3 2 2 1 1 2 1 0 0 0 0 0 0 1 1 0 0 0 0 0 0 0 0
0 0 0 0 0 0 0 0 0 0 0 1 3 5 6 7 8 8 8 9 9 8 10 9 6 3 2 0 0 0 1 1 1 0 0 0 0 0 0 0 0 0 0 0 0 0 0 0 0
0 0 0 0 0 0 0 0 0 0 0 1 4 5 5 6 6 6 6 7 6 7 10 10 7 4 1 0 0 0 0 0 0 0 0 0 0 0 0 0 0 0 0 0 0 0 0 0 1
0 0 0 0 0 0 0 0 0 0 0 2 5 5 4 3 4 4 4 4 5 8 9 9 7 5 1 0 0 0 0 0 0 0 0 0 0 0 0 0 0 0 0 0 1 1 1 1 1
0 0 0 0 0 0 0 0 0 0 1 3 6 6 4 3 3 3 3 4 6 9 8 7 6 4 1 0 0 0 0 0 0 0 0 0 0 0 0 0 0 0 0 0 0 0 0 0 1
0 0 0 0 0 0 0 0 0 1 1 3 6 7 5 4 4 3 3 4 6 7 6 5 4 2 1 1 1 1 1 1 0 0 0 1 1 1 1 0 0 0 0 0 0 0 0 0 0
0 0 0 0 0 0 0 0 0 1 1 2 5 6 6 5 4 3 3 4 4 5 4 3 2 1 1 2 2 2 2 2 1 0 1 2 2 2 1 0 0 0 0 0 0 0 0 0 0

GEFSSGP_con_prob3kmehi_138.txt.gz
EHI
0 3 6 6 6 8 6 2 0 1 0 0 1 3 9 13 17 20 25 48 66 53 36 32 27 17 9 6 5 5 5 3 1 0 0 0 0 0 0 0 0 0 0 0 0 0 0 0 0
1 2 4 5 6 6 3 1 1 1 1 0 2 6 11 15 18 21 31 54 62 44 29 28 26 18 11 7 5 5 5 3 1 1 1 0 0 0 0 0 0 0 0 0 0 0 0 0 0
0 1 1 2 4 3 1 0 1 1 1 1 4 9 14 16 19 26 39 54 52 35 26 28 26 19 13 8 5 4 5 4 2 2 2 1 0 0 0 0 0 0 0 0 0 0 0 0 0
1 0 0 1 1 1 0 0 0 0 0 2 9 17 21 20 22 29 35 42 42 34 28 28 27 22 14 8 5 4 6 6 4 3 2 1 0 0 0 0 0 0 0 0 0 0 0 0 0
1 0 0 0 0 0 0 0 0 0 1 3 13 27 32 28 27 26 26 30 36 38 31 28 28 22 13 8 6 6 6 6 4 3 2 1 0 0 0 0 0 0 0 0 0 0 0 0 0
1 0 0 0 0 0 0 0 0 1 2 4 15 32 41 36 29 24 21 25 38 45 37 29 25 19 12 9 6 5 4 4 3 3 3 1 1 0 0 0 0 0 0 0 0 0 0 0 0
0 0 0 0 0 0 0 0 0 2 4 6 15 32 44 42 32 22 19 27 44 50 38 25 17 13 10 8 6 4 2 1 3 3 3 2 1 0 0 0 0 0 0 0 0 0 0 0 0
0 0 0 0 0 0 0 0 1 4 6 9 19 35 49 48 35 22 20 34 51 50 33 20 12 8 5 4 4 2 1 1 2 3 3 3 1 0 0 0 0 0 0 0 0 0 0 0 0
0 0 0 0 0 0 1 1 3 7 10 15 28 44 54 49 36 27 29 46 59 52 34 22 15 8 3 2 2 1 0 0 1 3 3 3 1 0 1 2 3 1 0 0 0 0 0 0 0
0 0 0 0 0 1 2 3 4 8 12 21 35 49 50 44 38 36 43 57 67 61 44 33 24 14 10 8 5 4 3 2 2 4 3 2 2 2 3 6 6 3 1 1 0 0 0 0 0
0 0 0 0 0 1 2 3 4 7 12 20 34 44 43 40 42 46 55 66 71 67 57 47 36 28 26 22 13 9 6 3 3 4 3 2 3 6 8 10 8 5 3 2 1 1 1 0 0
0 0 0 0 0 0 1 1 4 8 12 17 29 40 41 41 45 53 62 70 72 70 65 58 50 45 44 36 23 14 9 8 8 8 6 6 9 13 15 13 9 6 4 4 3 2 1 0 0
0 0 0 0 0 0 0 1 5 11 15 20 29 39 44 45 49 56 64 69 71 70 67 62 57 55 53 46 33 23 19 19 18 15 11 12 15 18 17 12 7 4 4 3 2 2 2 1 1
0 0 0 1 1 1 0 1 7 14 19 24 31 41 50 54 57 61 63 66 69 69 66 63 59 56 55 50 40 31 26 25 22 17 14 13 14 14 11 6 3 1 2 3 1 1 2 2 3
0 0 0 1 1 1 0 2 9 15 18 22 31 41 53 61 63 64 64 65 67 66 64 60 54 52 55 50 39 29 23 20 17 14 12 11 10 7 5 2 1 0 1 2 1 1 1 1 1
0 0 0 0 0 0 0 4 10 12 14 21 31 41 51 58 62 63 63 64 64 64 63 57 49 50 53 50 38 29 23 18 13 10 10 9 8 6 4 4 3 2 1 2 1 1 0 0 0
0 0 0 0 0 0 0 4 9 10 13 22 31 38 43 48 54 58 60 60 60 61 61 56 51 49 48 46 39 31 27 21 14 10 9 7 6 5 5 5 6 3 1 2 2 0 0 0 0
0 0 0 0 0 0 1 4 8 9 13 21 27 31 35 40 46 51 53 53 56 57 56 55 52 48 42 38 34 29 24 19 13 11 10 6 3 3 3 4 5 3 1 2 1 0 0 0 0
0 0 0 0 0 0 1 4 7 9 14 20 24 26 29 35 40 43 44 47 49 49 48 47 45 40 34 31 29 24 18 13 9 9 9 6 3 2 1 2 2 2 1 1 1 0 0 0 0
0 0 0 0 0 0 0 3 7 11 16 22 23 21 25 33 35 34 36 41 41 39 38 38 37 32 28 27 26 23 16 9 6 7 7 5 4 2 1 0 1 1 1 0 0 0 0 0 0
0 0 0 0 0 0 0 3 8 14 20 24 22 18 20 28 31 28 29 33 33 30 30 32 34 32 29 26 23 19 13 8 6 6 5 5 3 2 1 0 1 1 0 0 0 0 0 0 0
0 0 0 0 0 0 0 2 8 16 24 25 23 19 18 24 29 26 23 24 24 23 25 30 34 35 32 26 20 15 9 6 6 6 5 3 2 1 1 1 1 1 0 0 0 0 0 0 0
0 0 0 0 0 0 0 1 5 13 21 26 26 22 18 22 27 24 22 22 20 20 22 27 31 33 31 25 19 13 7 4 4 5 4 2 1 0 0 1 1 1 0 0 0 0 0 0 0
0 0 0 0 0 0 0 1 3 8 16 23 25 22 19 20 23 23 23 22 21 20 23 27 31 32 29 24 18 13 7 4 4 4 2 1 0 0 0 0 1 0 0 0 0 0 0 0 0
0 0 0 0 0 0 0 0 2 6 12 18 20 18 17 17 20 23 23 22 21 22 26 31 34 31 25 21 17 11 8 7 5 3 1 0 0 0 0 0 0 0 0 0 0 0 0 0 0
0 0 0 0 0 0 0 0 1 4 10 15 16 16 16 16 18 22 22 21 20 22 26 32 34 29 22 19 16 12 11 9 5 3 1 0 0 0 0 0 0 0 0 0 0 0 0 0 0
0 0 0 0 0 0 0 1 2 4 8 12 14 16 16 14 17 21 21 20 19 20 24 29 32 26 19 16 14 12 10 7 4 2 1 0 0 1 1 0 0 0 0 0 0 0 0 1 1
0 0 1 0 0 0 0 1 3 5 8 10 13 16 16 14 16 20 21 21 21 21 23 27 28 23 15 12 11 10 8 5 3 2 1 0 1 1 1 0 1 1 1 0 0 0 0 1 2
0 0 1 1 0 0 0 0 2 5 7 8 10 14 17 16 15 20 23 24 25 25 26 28 27 20 12 9 9 8 7 5 4 3 3 1 2 2 2 1 2 2 1 1 0 0 0 1 1
0 0 1 1 1 0 0 0 1 2 4 6 8 12 17 16 15 20 25 26 27 29 29 30 27 18 12 9 8 8 7 5 5 5 4 3 3 4 3 2 2 2 1 1 1 1 0 0 0